Overview Statistics Trail Chart Weather Telemetry Raw packets
 

This is the latest recevied weather packets stored in our database for station/object W8KVG. If no packets are shown the sender has not sent any weather packets the latest 10 day(s).

<< 47 48 49 50 51 52 53 >>
Time Temp. Humidity Pressure Rain* Wind** Luminosity Snow
1777597951 6.67° C 81% 1013.7 hPa 0 mm - 0 W/m² -
1777597650 6.67° C 82% 1013.6 hPa 0 mm - 0 W/m² -
1777597346 7.22° C 80% 1013.8 hPa 0 mm - 0 W/m² -
1777597041 7.22° C 79% 1013.6 hPa 0 mm - 0 W/m² -
1777596738 7.22° C 79% 1013.6 hPa 0 mm - 0 W/m² -
1777596435 7.22° C 78% 1013.6 hPa 0 mm - 0 W/m² -
1777596132 7.22° C 78% 1013.8 hPa 0 mm - 0 W/m² -
1777595828 7.22° C 77% 1013.6 hPa 0 mm - 0 W/m² -
1777595523 7.78° C 77% 1013.5 hPa 0 mm - 0 W/m² -
1777595220 7.78° C 77% 1013.7 hPa 0 mm - 0 W/m² -
1777594916 7.78° C 77% 1013.6 hPa 0 mm - 1 W/m² -
1777594612 7.78° C 76% 1013.5 hPa 0 mm - 1 W/m² -
1777594309 7.78° C 76% 1013.6 hPa 0 mm - 3 W/m² -
1777594005 7.78° C 75% 1013.4 hPa 0 mm - 4 W/m² -
1777593701 7.78° C 75% 1013.4 hPa 0 mm - 7 W/m² -
1777593397 7.78° C 74% 1013.1 hPa 0 mm - 8 W/m² -
1777593096 7.78° C 74% 1013.2 hPa 0 mm - 11 W/m² -
1777592795 7.78° C 74% 1013.1 hPa 0 mm - 12 W/m² -
1777592492 8.33° C 73% 1013 hPa 0 mm - 13 W/m² -
1777592187 8.33° C 72% 1013.2 hPa 0 mm - 16 W/m² -
1777591884 8.33° C 72% 1013 hPa 0 mm - 18 W/m² -
1777591580 8.89° C 72% 1013 hPa 0 mm - 20 W/m² -
1777591276 8.89° C 74% 1013.1 hPa 0 mm - 24 W/m² -
1777590972 8.89° C 72% 1013.3 hPa 0 mm - 41 W/m² -
1777590668 8.89° C 73% 1013.3 hPa 0 mm - 64 W/m² -

* Rain latest hour (hover to see other rain measurements)
** Current wind speed in m/s (hover to see current wind gust speed)